"Pseudo-MPEC" for P11dgvu
Created 2021 Mar 4 15:07:10 UT using Find_Orb
Click here for an explanation of pseudo-MPECs
Astrometry: P11dgvu C2021 02 12i\cR;S[.W.
Astrometryu=)pksb,n/kG
redacted;aZsE*))t#M0
F51 P11dgvu C2021 02 12f%s;4*I/G-YlBSN+Dvl$I7cSt]0GHv'NJB.EVR_2'U;fSk2X:IuG
F51 P11dgvu C2021 02 12D2WEZ.
clickL.XHK
herefnQv6S3r.
forN8?KN3NI[L[8rxJXGOyo
F51 P11dgvu C2021 02 12ZOoK(\wkd5-]`[K5*,a?x3[y2`135d\J:Quvhrg,-
explanationF51 Station data: (F51) Pan-STARRS 1, Haleakala (N20.707235 W156.255910) US/Hawaii. Observers N. Primak, A. Schultz, S. Watters, J. Thiel, T. Goggia. Measurer PS1 Science Consortium. 1.8-m Ritchey-Chrétien + CCD. Orbital elements: P11dgvu Perihelion 2020 Jan 9.610063 +/- 236.079 TT = 14:38:29 (JD 2458858.110063) Epoch 2021 Feb 13.0 TT = JDT 2459258.5 Earth MOID: 0.7444 AutoNEOCP M 163.00239697 +/- 134.00956 (J2000 ecliptic) n 0.40710912 +/- 0.24916 Peri. 235.59390 +/- 82.325725 a 1.80299902 +/- 0.735638 Node 103.42381 +/- 41.805388 e 0.0364592 +/- 0.275183 Incl. 23.11719 +/- 28.239807 P 2.42/884.27d H 20.4 G 0.15 U 11.8 SR q 1.73726301 +/- 0.827894 Q 1.86873502 +/- 36.7007 From 4 observations 2021 Feb. 12 (41.9 min); mean residual 0".04
Residuals in arcseconds: 210212 F51 .02- .06+ 210212 F51 .01- .03- 210212 F51 .03+ .07- 210212 F51 .00 .04+ Ephemerides (geocentric): Date (UTC) HH RA Dec delta r elong mag " sig PA ---- -- -- -- ------------- ----------- ------ ------ ----- --- ---- --- 2021 03 04 15 09 39 44.425 +47 35 20.52 1.0285 1.8680 135.2 22.9 28d 142 2021 03 04 16 09 39 41.786 +47 35 34.09 1.0288 1.8680 135.2 22.9 28d 142 2021 03 04 17 09 39 39.150 +47 35 47.59 1.0290 1.8680 135.2 22.9 28d 142 2021 03 04 18 09 39 36.519 +47 36 01.02 1.0293 1.8680 135.1 22.9 28d 142 2021 03 04 19 09 39 33.891 +47 36 14.39 1.0295 1.8680 135.1 22.9 28d 142 2021 03 04 20 09 39 31.268 +47 36 27.70 1.0298 1.8680 135.0 22.9 28d 142 2021 03 04 21 09 39 28.648 +47 36 40.94 1.0300 1.8680 135.0 22.9 28d 142 2021 03 04 22 09 39 26.032 +47 36 54.12 1.0303 1.8680 135.0 22.9 28d 142 2021 03 04 23 09 39 23.420 +47 37 07.23 1.0305 1.8680 134.9 22.9 28d 142 2021 03 05 00 09 39 20.812 +47 37 20.28 1.0308 1.8680 134.9 22.9 28d 142 2021 03 05 01 09 39 18.208 +47 37 33.26 1.0310 1.8680 134.9 22.9 28d 142 2021 03 05 02 09 39 15.608 +47 37 46.18 1.0312 1.8680 134.8 22.9 28d 142 2021 03 05 03 09 39 13.011 +47 37 59.03 1.0315 1.8680 134.8 22.9 28d 142 2021 03 05 04 09 39 10.419 +47 38 11.82 1.0317 1.8680 134.8 22.9 28d 143 2021 03 05 05 09 39 07.831 +47 38 24.55 1.0320 1.8680 134.7 22.9 28d 143 2021 03 05 06 09 39 05.246 +47 38 37.21 1.0322 1.8680 134.7 22.9 28d 143 2021 03 05 07 09 39 02.666 +47 38 49.81 1.0325 1.8680 134.7 22.9 28d 143 2021 03 05 08 09 39 00.090 +47 39 02.34 1.0327 1.8680 134.6 22.9 28d 143 2021 03 05 09 09 38 57.517 +47 39 14.81 1.0330 1.8680 134.6 22.9 28d 143 2021 03 05 10 09 38 54.949 +47 39 27.22 1.0332 1.8680 134.6 22.9 28d 143 2021 03 05 11 09 38 52.384 +47 39 39.56 1.0335 1.8680 134.5 22.9 28d 143 2021 03 05 12 09 38 49.824 +47 39 51.84 1.0337 1.8680 134.5 22.9 28d 143 2021 03 05 13 09 38 47.268 +47 40 04.05 1.0340 1.8680 134.5 22.9 28d 143 2021 03 05 14 09 38 44.715 +47 40 16.20 1.0342 1.8680 134.4 22.9 28d 143 2021 03 05 15 09 38 42.167 +47 40 28.28 1.0345 1.8680 134.4 22.9 28d 143 2021 03 05 16 09 38 39.623 +47 40 40.31 1.0347 1.8680 134.4 22.9 28d 143 2021 03 05 17 09 38 37.082 +47 40 52.27 1.0350 1.8681 134.3 23.0 28d 143 2021 03 05 18 09 38 34.546 +47 41 04.16 1.0352 1.8681 134.3 23.0 28d 143 2021 03 05 19 09 38 32.014 +47 41 15.99 1.0355 1.8681 134.2 23.0 28d 143 2021 03 05 20 09 38 29.486 +47 41 27.76 1.0357 1.8681 134.2 23.0 28d 143 2021 03 05 21 09 38 26.962 +47 41 39.46 1.0360 1.8681 134.2 23.0 28d 143 2021 03 05 22 09 38 24.442 +47 41 51.10 1.0362 1.8681 134.1 23.0 28d 143 2021 03 05 23 09 38 21.927 +47 42 02.68 1.0365 1.8681 134.1 23.0 28d 143 2021 03 06 00 09 38 19.415 +47 42 14.20 1.0368 1.8681 134.1 23.0 28d 143 2021 03 06 01 09 38 16.907 +47 42 25.65 1.0370 1.8681 134.0 23.0 28d 143 2021 03 06 02 09 38 14.404 +47 42 37.03 1.0373 1.8681 134.0 23.0 28d 143 2021 03 06 03 09 38 11.905 +47 42 48.36 1.0375 1.8681 134.0 23.0 28d 143 2021 03 06 04 09 38 09.410 +47 42 59.62 1.0378 1.8681 133.9 23.0 28d 143 2021 03 06 05 09 38 06.919 +47 43 10.82 1.0380 1.8681 133.9 23.0 28d 143 2021 03 06 06 09 38 04.432 +47 43 21.95 1.0383 1.8681 133.9 23.0 28d 143 2021 03 06 07 09 38 01.949 +47 43 33.02 1.0385 1.8681 133.8 23.0 29d 143 2021 03 06 08 09 37 59.471 +47 43 44.03 1.0388 1.8681 133.8 23.0 29d 143 2021 03 06 09 09 37 56.996 +47 43 54.98 1.0390 1.8681 133.8 23.0 29d 143 2021 03 06 10 09 37 54.526 +47 44 05.86 1.0393 1.8681 133.7 23.0 29d 143 2021 03 06 11 09 37 52.060 +47 44 16.68 1.0396 1.8681 133.7 23.0 29d 143 2021 03 06 12 09 37 49.598 +47 44 27.44 1.0398 1.8681 133.7 23.0 29d 143 2021 03 06 13 09 37 47.141 +47 44 38.13 1.0401 1.8681 133.6 23.0 29d 143 2021 03 06 14 09 37 44.687 +47 44 48.77 1.0403 1.8681 133.6 23.0 29d 143